[[{"header":{"parameterUnit":"m.s-1","parameterCategory":1,"la1":30.2991,"la2":30.254,"lo1":-89.0895,"lo2":-89.0444,"dy":0.0017,"dx":0.0017,"nx":28,"ny":28,"refTime":"2024-08-01T09:00:00:Z","depth":0,"parameterNumber":2,"parameterNumberName":"U-component_of_WINDS"},"data":[0,0,0,0,0,0,0,0,0,0,0,0,0,0,0,0,0,0,0,0,0,0,0,0,0,0,0,0,0,0,0,0,0,0,0,0,0,0,0,0,0,0,0,0,0,0,0,0,0,0,0,0,0,0,0,0,0,0,4.103,4.103,0,4.107,4.1071,4.1071,4.0982,4.0979,4.0976,4.0973,4.1018,4.1022,4.1026,0,0,0,0,0,0,0,0,0,0,0,0,0,4.0874,4.0878,4.103,4.103,4.1031,4.107,4.1071,4.1072,4.0982,4.0979,4.0975,4.0972,4.1017,4.1021,4.1026,0,0,0,0,0,0,0,0,0,0,0,0,0,4.0931,4.0879,4.103,4.0991,4.0988,4.107,4.1071,4.1072,4.0983,4.0979,4.0974,4.097,4.1015,4.1021,4.1027,4.115,0,0,4.1045,4.1047,0,0,0,0,0,0,0,0,4.0928,4.0937,4.0996,4.0994,4.099,4.1016,4.1033,4.1098,4.0984,4.0985,4.0973,4.0968,4.1021,4.1026,4.1044,4.1152,4.1154,4.1045,4.1049,4.1051,4.1053,0,0,0,0,0,0,0,4.0924,4.0935,4.1046,4.0997,4.0994,4.0971,4.0975,4.1045,4.1027,4.0985,4.0978,4.0984,4.1019,4.1038,4.1044,4.1154,4.1045,4.105,4.1054,4.1056,4.1361,4.1365,0,0,0,0,0,0,4.0925,4.0932,4.1045,4.1047,4.0948,4.0978,4.0981,4.1013,4.1026,4.1024,4.0988,4.098,4.103,4.1037,4.1045,4.1187,4.1051,4.1057,4.106,4.1356,4.1362,4.1367,0,0,0,0,0,0,4.0922,4.0936,4.1043,4.0988,4.1,4.0985,4.1021,4.1016,4.1035,4.1028,4.1025,4.1011,4.1027,4.1037,4.1123,4.1187,4.1059,4.1065,4.1351,4.1358,4.1364,4.1473,0,0,0,0,0,0,4.0918,4.0936,4.0982,4.099,4.1003,4.112,4.1025,4.102,4.1045,4.1035,4.1049,4.1047,4.1025,4.1115,4.1129,4.1193,4.1069,4.1345,4.1354,4.1362,4.1463,4.1482,4.1499,0,0,0,0,0,4.0913,4.1013,4.0985,4.0999,4.1061,4.1124,4.1132,4.1103,4.105,4.1097,4.1092,4.1047,4.1178,4.1125,4.114,4.1206,4.1341,4.1351,4.1361,4.1455,4.1479,4.1498,0,0,0,0,0,0,4.1016,4.1013,4.0983,4.1088,4.1107,4.1109,4.1167,4.113,4.1165,4.1154,4.1117,4.1121,4.1214,4.1219,4.1159,4.1323,4.125,4.1264,4.1317,4.1339,4.1356,4.1352,4.1074,0,0,0,0,0,4.1051,4.1102,4.1097,4.119,4.1201,4.1183,4.1209,4.1185,4.1203,4.1211,4.1213,4.1233,4.1278,4.1309,4.1351,4.1464,4.1464,4.1517,4.1535,4.1549,4.1561,4.1617,4.1639,4.1401,4.1401,4.14,0,0,4.1124,4.1128,4.1163,4.1211,4.1223,4.1275,4.119,4.1251,4.1289,4.1221,4.1301,4.1303,4.1323,4.1422,4.1465,4.1429,4.1627,4.1562,4.1574,4.1578,4.163,4.1653,4.1673,4.1408,4.1406,4.1405,0,0,4.1282,4.1292,4.1369,4.1381,4.1399,4.1386,4.1404,4.1411,4.1409,4.1489,4.1437,4.1483,4.1563,4.1577,4.1596,4.1756,4.1715,4.1771,4.1863,4.1918,4.1937,4.1953,4.2007,4.2028,4.1783,4.1784,4.1784,0,4.1371,4.1448,4.1414,4.1476,4.1497,4.1436,4.1512,4.1527,4.1558,4.1574,4.1532,4.1628,4.1638,4.1737,4.1775,4.1794,4.1812,4.1769,4.1937,4.1953,4.1968,4.2019,4.204,4.179,4.1789,4.1789,4.1788,0,4.1554,4.1608,4.1668,4.1696,4.1724,4.1794,4.177,4.1803,4.1775,4.1766,4.1846,4.1855,4.1895,4.1917,4.1893,4.2012,4.1988,4.1943,4.1868,4.1998,4.2045,4.2064,4.1799,4.1797,4.1795,4.1793,0,0,4.178,4.1786,4.1808,4.1818,4.1832,4.1873,4.1939,4.1976,4.2003,4.2027,4.208,4.2147,4.2103,4.2124,4.21,4.2149,4.2271,4.2096,4.2096,4.2126,4.2399,4.2431,4.2455,4.2244,4.2247,4.225,4.2396,0,4.1934,4.2045,4.2014,4.2126,4.2173,4.2114,4.217,4.2185,4.2177,4.2216,4.2208,4.2255,4.2196,4.2207,4.2253,4.2246,4.2325,4.2236,4.2291,4.2293,4.2285,4.248,4.2515,4.2653,4.2415,4.2418,4.242,0,4.2129,4.2156,4.2271,4.2272,4.2291,4.2343,4.2373,4.2412,4.2426,4.2416,4.2438,4.2403,4.2466,4.2392,4.2478,4.2418,4.2439,4.2439,4.2443,4.2446,4.2363,4.2485,4.2696,4.2716,4.245,4.2447,4.2445,0,4.2278,4.2344,4.242,4.2431,4.2436,4.2473,4.2477,4.2486,4.2509,4.2536,4.255,4.2585,4.2603,4.263,4.2605,4.2554,4.2694,4.2619,4.2686,4.2687,4.2717,4.2715,4.2932,4.2735,4.2735,4.2735,4.2734,0,4.2452,4.2524,4.2486,4.2533,4.261,4.2574,4.2653,4.265,4.2658,4.2702,4.2655,4.2697,4.2663,4.2702,4.2684,4.2755,4.2765,4.2758,4.2752,4.2761,4.2761,4.2773,4.2761,4.274,4.2739,4.2738,4.2737,0,4.2631,4.2609,4.2687,4.2683,4.2684,4.2741,4.2738,4.2781,4.2769,4.2825,4.2837,4.2818,4.2862,4.2839,4.2886,4.2873,4.2965,4.2947,4.2959,4.2953,4.3021,4.3014,4.3251,4.3278,4.3067,4.3069,4.3071,0,4.2742,4.2795,4.2796,4.2821,4.2827,4.287,4.2892,4.2858,4.2883,4.2901,4.2941,4.298,4.3009,4.3081,4.3072,4.3106,4.3087,4.3168,4.3092,4.3098,4.3084,4.308,4.3084,4.3182,4.3185,4.3187,4.3189,0,4.294,4.2925,4.2959,4.2987,4.3014,4.3036,4.3054,4.3078,4.3044,4.3074,4.3117,4.3139,4.3184,4.3223,4.3252,4.3255,4.3216,4.3212,4.3229,4.3238,4.3241,4.3237,4.2997,4.3207,4.3205,4.3204,4.3203,4.3202,4.3086,4.3129,4.3135,4.3173,4.3182,4.3198,4.3236,4.3228,4.3262,4.3295,4.3273,4.3323,4.3332,4.3366,4.3375,4.3413,4.3381,4.3406,4.3412,4.3418,4.3425,4.3237,4.3418,4.3418,4.3417,4.3417,4.3417,0,4.3279,4.3279,4.3314,4.3338,4.3367,4.3326,4.3342,4.3369,4.3413,4.3424,4.3453,4.35,4.3536,4.3529,4.3561,4.3593,4.3575,4.3602,4.3598,4.3599,4.3454,4.3434,4.3616,4.3616,4.3616,4.3616,4.3616,4.3615,4.3382,4.3451,4.3437,4.3508,4.3508,4.3555,4.3567,4.3581,4.359,4.3644,4.3673,4.3667,4.367,4.3702,4.3733,4.373,4.3742,4.3776,4.3766,4.363,4.361,4.3591,4.3572,4.3779,4.378,4.3907,4.3908,4.3909]},{"header":{"parameterUnit":"m.s-1","parameterCategory":1,"la1":30.2991,"la2":30.254,"lo1":-89.0895,"lo2":-89.0444,"dy":0.0017,"dx":0.0017,"nx":28,"ny":28,"refTime":"2024-08-01T09:00:00:Z","depth":0,"parameterNumber":3,"parameterNumberName":"V-component_of_WINDS"},"data":[0,0,0,0,0,0,0,0,0,0,0,0,0,0,0,0,0,0,0,0,0,0,0,0,0,0,0,0,0,0,0,0,0,0,0,0,0,0,0,0,0,0,0,0,0,0,0,0,0,0,0,0,0,0,0,0,0,0,5.2826,5.2828,0,5.2941,5.2942,5.2943,5.2926,5.2924,5.2923,5.2921,5.3032,5.3037,5.3041,0,0,0,0,0,0,0,0,0,0,0,0,0,5.2586,5.2591,5.2826,5.2828,5.2829,5.294,5.2942,5.2944,5.2927,5.2924,5.2922,5.292,5.3031,5.3036,5.3042,0,0,0,0,0,0,0,0,0,0,0,0,0,5.2694,5.2592,5.2826,5.2834,5.2836,5.294,5.2942,5.2944,5.2927,5.2924,5.2921,5.2919,5.3029,5.3036,5.3043,5.3144,0,0,5.3064,5.3067,0,0,0,0,0,0,0,0,5.2688,5.2703,5.2832,5.2834,5.2836,5.2916,5.2898,5.3011,5.2928,5.2892,5.2921,5.2917,5.2996,5.3005,5.3033,5.3149,5.3154,5.3065,5.3069,5.3072,5.3074,0,0,0,0,0,0,0,5.2681,5.2698,5.2871,5.2833,5.2836,5.283,5.2842,5.2919,5.2958,5.2895,5.2894,5.2908,5.2996,5.3026,5.3035,5.3155,5.3065,5.3071,5.3075,5.3078,5.3357,5.336,0,0,0,0,0,0,5.2672,5.2692,5.2868,5.2875,5.2754,5.2837,5.285,5.2893,5.2958,5.2965,5.2911,5.2907,5.3015,5.3027,5.3039,5.316,5.3072,5.3079,5.3083,5.3354,5.3358,5.3361,0,0,0,0,0,0,5.2667,5.2688,5.2863,5.2783,5.2805,5.2844,5.2892,5.2897,5.2927,5.2969,5.2976,5.2935,5.3013,5.3029,5.3118,5.3164,5.3082,5.3089,5.335,5.3355,5.336,5.3404,0,0,0,0,0,0,5.266,5.2686,5.2727,5.2784,5.2809,5.2942,5.2895,5.2902,5.294,5.2937,5.2993,5.3,5.3012,5.3107,5.3125,5.3172,5.3094,5.3346,5.3352,5.3358,5.3398,5.3409,5.3419,0,0,0,0,0,5.2652,5.2734,5.2729,5.275,5.2861,5.2945,5.2959,5.2973,5.2944,5.2984,5.301,5.2998,5.3156,5.3116,5.3136,5.3186,5.3343,5.3351,5.3358,5.3394,5.3407,5.3418,0,0,0,0,0,0,5.2679,5.2742,5.2737,5.2841,5.2888,5.2942,5.2993,5.2987,5.3042,5.3036,5.305,5.3063,5.3152,5.3178,5.3133,5.3286,5.3245,5.3257,5.3266,5.3279,5.3289,5.328,5.31,0,0,0,0,0,5.2698,5.2762,5.2813,5.2899,5.2923,5.2954,5.2991,5.2998,5.3046,5.3065,5.3099,5.3145,5.3204,5.3243,5.33,5.3402,5.3412,5.3446,5.3456,5.3464,5.3473,5.3526,5.3541,5.3384,5.3384,5.3384,0,0,5.2736,5.2778,5.2818,5.2906,5.2943,5.3007,5.2971,5.3041,5.3088,5.3075,5.3161,5.3187,5.3239,5.3334,5.3377,5.3358,5.3519,5.3473,5.3479,5.3484,5.3535,5.355,5.3563,5.3389,5.3388,5.3388,0,0,5.2838,5.2878,5.2953,5.2991,5.3049,5.3068,5.3086,5.3141,5.3158,5.3245,5.3237,5.3291,5.3395,5.3431,5.3463,5.3577,5.3567,5.3595,5.3648,5.37,5.3712,5.3723,5.3762,5.3776,5.3605,5.3605,5.3605,0,5.2878,5.2977,5.2992,5.3063,5.3101,5.3094,5.3169,5.3205,5.3277,5.3302,5.328,5.3408,5.3442,5.3544,5.3572,5.3599,5.3618,5.3589,5.371,5.3721,5.3731,5.3768,5.3783,5.3608,5.3607,5.3607,5.3607,0,5.3021,5.309,5.3143,5.3215,5.3259,5.3331,5.3355,5.3397,5.34,5.3421,5.3507,5.3549,5.3613,5.3638,5.3641,5.374,5.3726,5.3707,5.3666,5.3749,5.3783,5.3798,5.3612,5.3611,5.361,5.3609,0,0,5.3145,5.3223,5.3243,5.3274,5.3336,5.3388,5.3458,5.3523,5.3558,5.3607,5.3665,5.3752,5.3734,5.377,5.3777,5.3823,5.3908,5.3797,5.3799,5.3815,5.4016,5.4029,5.4046,5.3901,5.3904,5.3906,5.4011,0,5.3251,5.3379,5.3394,5.3507,5.3568,5.3562,5.3623,5.3666,5.3688,5.3741,5.3763,5.3824,5.3797,5.3818,5.3863,5.3888,5.3948,5.3881,5.3953,5.3955,5.3939,5.4064,5.4079,5.4176,5.4025,5.4027,5.4029,0,5.3394,5.3448,5.3567,5.3619,5.3645,5.3701,5.376,5.3812,5.3859,5.3871,5.3911,5.3912,5.3982,5.3939,5.4034,5.3988,5.4018,5.4035,5.4039,5.4045,5.3996,5.4072,5.4207,5.4221,5.4051,5.4049,5.4048,0,5.3469,5.3572,5.3656,5.3684,5.3747,5.3785,5.3813,5.3858,5.3895,5.3946,5.397,5.4028,5.4059,5.4103,5.4117,5.4085,5.4211,5.417,5.4221,5.422,5.4247,5.4245,5.4387,5.4269,5.4268,5.4268,5.4268,0,5.3586,5.3658,5.3691,5.3743,5.3822,5.3838,5.3916,5.3941,5.3981,5.4035,5.4033,5.4083,5.4101,5.4154,5.4165,5.4241,5.4255,5.4265,5.4267,5.4265,5.4263,5.4284,5.4277,5.4272,5.4271,5.427,5.427,0,5.3684,5.3709,5.38,5.3852,5.3866,5.3923,5.3966,5.4014,5.4035,5.4103,5.412,5.4151,5.4212,5.4232,5.4306,5.4314,5.4401,5.4398,5.4386,5.4386,5.4434,5.4429,5.4594,5.4615,5.4484,5.4486,5.4487,0,5.3756,5.3812,5.387,5.3907,5.3937,5.3996,5.4034,5.4051,5.409,5.4148,5.4188,5.425,5.43,5.4398,5.4425,5.4481,5.4478,5.4532,5.4486,5.4481,5.4477,5.4472,5.4477,5.454,5.4542,5.4543,5.4544,0,5.3881,5.389,5.3947,5.4007,5.4053,5.41,5.4146,5.4176,5.4199,5.4243,5.4307,5.4345,5.4421,5.4481,5.4538,5.4563,5.4556,5.4558,5.4572,5.4569,5.4559,5.4563,5.4408,5.4554,5.4553,5.4552,5.4551,5.4551,5.3967,5.4015,5.4064,5.4126,5.4162,5.4205,5.4252,5.4279,5.4333,5.4397,5.4403,5.4471,5.4514,5.459,5.4618,5.467,5.4654,5.4675,5.468,5.4685,5.4688,5.4552,5.468,5.468,5.468,5.468,5.468,0,5.409,5.4121,5.4178,5.4242,5.429,5.4282,5.4332,5.4372,5.4433,5.4475,5.4524,5.4596,5.4654,5.4686,5.4743,5.4778,5.4776,5.4792,5.4788,5.4794,5.47,5.4681,5.4792,5.4792,5.4792,5.4792,5.4792,5.4792,5.416,5.4241,5.4255,5.4353,5.4383,5.4451,5.448,5.4518,5.4552,5.4633,5.4681,5.4702,5.474,5.4799,5.485,5.4858,5.4878,5.4896,5.4901,5.4812,5.4801,5.479,5.4772,5.4901,5.4901,5.4991,5.4992,5.4992]}]]